When you browse on this site, cookies collect data to enhance your experience and personalize the content and advertising you see.
Visit our Privacy Policy to learn more. By continuing to use the site, you agree to this use of cookies and data.
  • In Germany
  • List of Countries
  • For 7 days
  • Water Temperature
  • Satellite Maps
  • Weather Map
  • Weather Widgets
  • user-avatar
    Login

    Hourly Weather Majdan

    Today, 21 July, Sunday

    Time Temperature Precipitation Wind Pressure Humidity
    00:00 +20°C° 0 mm 2 mps 753 mmHg 78%
    01:00 +19°C° 0 mm 2 mps 753 mmHg 79%
    02:00 +19°C° 0 mm 2 mps 753 mmHg 80%
    03:00 +19°C° 0 mm 2 mps 753 mmHg 82%
    04:00 +18°C° 0 mm 2 mps 752 mmHg 83%
    05:00 +20°C° 0 mm 2 mps 752 mmHg 79%
    06:00 +23°C° 0 mm 2 mps 752 mmHg 74%
    07:00 +24°C° 0 mm 2 mps 752 mmHg 69%
    08:00 +26°C° 0 mm 3 mps 752 mmHg 65%
    09:00 +27°C° 0 mm 3 mps 752 mmHg 60%
    10:00 +28°C° 0 mm 4 mps 753 mmHg 55%
    11:00 +29°C° 0.2 mm 4 mps 752 mmHg 54%
    12:00 +30°C° 0.2 mm 4 mps 752 mmHg 53%
    13:00 +30°C° 0.2 mm 4 mps 752 mmHg 52%
    14:00 +30°C° 0.2 mm 5 mps 752 mmHg 52%
    15:00 +30°C° 0.2 mm 5 mps 752 mmHg 52%
    16:00 +30°C° 0.2 mm 5 mps 752 mmHg 52%
    17:00 +28°C° 0 mm 5 mps 752 mmHg 57%
    18:00 +27°C° 0 mm 4 mps 753 mmHg 62%
    19:00 +25°C° 0 mm 4 mps 753 mmHg 67%
    20:00 +23°C° 0 mm 4 mps 753 mmHg 70%
    21:00 +22°C° 0 mm 3 mps 753 mmHg 73%
    22:00 +21°C° 0 mm 3 mps 754 mmHg 77%
    23:00 +20°C° 0 mm 3 mps 754 mmHg 81%

    Tomorrow, 22 July, Monday

    Time Temperature Precipitation Wind Pressure Humidity
    00:00 +19°C° 0 mm 3 mps 754 mmHg 86%
    01:00 +18°C° 0 mm 2 mps 755 mmHg 91%
    02:00 +18°C° 0 mm 2 mps 755 mmHg 91%
    03:00 +18°C° 0 mm 2 mps 755 mmHg 91%
    04:00 +17°C° 0 mm 3 mps 755 mmHg 91%
    05:00 +18°C° 0 mm 3 mps 756 mmHg 85%
    06:00 +19°C° 0 mm 4 mps 756 mmHg 80%
    07:00 +20°C° 0 mm 5 mps 756 mmHg 74%
    08:00 +21°C° 0 mm 5 mps 756 mmHg 69%
    09:00 +22°C° 0 mm 5 mps 756 mmHg 64%
    10:00 +23°C° 0 mm 6 mps 756 mmHg 59%
    11:00 +24°C° 0 mm 6 mps 756 mmHg 56%
    12:00 +24°C° 0 mm 6 mps 756 mmHg 53%
    13:00 +26°C° 0 mm 6 mps 756 mmHg 49%
    14:00 +26°C° 0 mm 6 mps 756 mmHg 49%
    15:00 +26°C° 0 mm 6 mps 756 mmHg 50%
    16:00 +26°C° 0 mm 6 mps 756 mmHg 50%
    17:00 +25°C° 0 mm 5 mps 756 mmHg 55%
    18:00 +22°C° 0 mm 4 mps 756 mmHg 59%
    19:00 +21°C° 0 mm 3 mps 756 mmHg 64%
    20:00 +20°C° 0 mm 3 mps 756 mmHg 67%
    21:00 +19°C° 0 mm 3 mps 757 mmHg 70%
    22:00 +18°C° 0 mm 2 mps 757 mmHg 73%
    23:00 +17°C° 0 mm 2 mps 757 mmHg 76%

    Day after tomorrow, 23 July, Tuesday

    Time Temperature Precipitation Wind Pressure Humidity
    00:00 +17°C° 0 mm 2 mps 757 mmHg 78%
    01:00 +16°C° 0 mm 2 mps 757 mmHg 80%
    02:00 +15°C° 0 mm 2 mps 757 mmHg 82%
    03:00 +15°C° 0 mm 2 mps 757 mmHg 84%
    04:00 +15°C° 0 mm 2 mps 757 mmHg 86%
    05:00 +16°C° 0 mm 2 mps 756 mmHg 81%
    06:00 +17°C° 0 mm 3 mps 756 mmHg 75%
    07:00 +18°C° 0 mm 3 mps 756 mmHg 70%
    08:00 +20°C° 0 mm 3 mps 756 mmHg 64%
    09:00 +21°C° 0 mm 4 mps 756 mmHg 58%
    10:00 +23°C° 0 mm 4 mps 756 mmHg 52%
    11:00 +23°C° 0 mm 4 mps 756 mmHg 52%
    12:00 +25°C° 0 mm 5 mps 756 mmHg 52%
    13:00 +24°C° 0 mm 6 mps 756 mmHg 53%
    14:00 +23°C° 0 mm 5 mps 756 mmHg 58%
    15:00 +22°C° 0 mm 5 mps 756 mmHg 63%
    16:00 +21°C° 0 mm 5 mps 756 mmHg 68%
    17:00 +20°C° 0 mm 4 mps 755 mmHg 72%
    18:00 +20°C° 0 mm 3 mps 755 mmHg 76%
    19:00 +19°C° 0 mm 2 mps 755 mmHg 79%
    20:00 +18°C° 0 mm 2 mps 755 mmHg 83%
    21:00 +18°C° 0 mm 2 mps 755 mmHg 86%
    22:00 +18°C° 0 mm 1 mps 756 mmHg 89%
    23:00 +18°C° 0 mm 1 mps 756 mmHg 89%

    24 July, Wednesday

    Time Temperature Precipitation Wind Pressure Humidity
    00:00 +18°C° 0 mm 1 mps 756 mmHg 90%
    01:00 +19°C° 0 mm 1 mps 756 mmHg 90%
    02:00 +19°C° 0 mm 1 mps 755 mmHg 90%
    03:00 +17°C° 0 mm 0 mps 755 mmHg 89%
    04:00 +17°C° 0 mm 0 mps 755 mmHg 89%
    05:00 +18°C° 0 mm 0 mps 755 mmHg 86%
    06:00 +21°C° 0 mm 1 mps 755 mmHg 83%
    07:00 +21°C° 0 mm 1 mps 756 mmHg 79%
    08:00 +22°C° 0.1 mm 1 mps 756 mmHg 76%
    09:00 +23°C° 0.1 mm 1 mps 756 mmHg 72%
    10:00 +24°C° 0.1 mm 1 mps 756 mmHg 69%
    11:00 +25°C° 0 mm 2 mps 756 mmHg 66%
    12:00 +25°C° 0 mm 2 mps 756 mmHg 64%
    13:00 +26°C° 0 mm 2 mps 756 mmHg 61%
    14:00 +27°C° 0 mm 2 mps 755 mmHg 59%
    15:00 +27°C° 0 mm 2 mps 755 mmHg 58%
    16:00 +27°C° 0 mm 2 mps 755 mmHg 56%
    17:00 +26°C° 0 mm 2 mps 755 mmHg 61%
    18:00 +25°C° 0 mm 1 mps 755 mmHg 66%
    19:00 +24°C° 0 mm 1 mps 755 mmHg 71%
    20:00 +24°C° 0 mm 1 mps 755 mmHg 74%
    21:00 +23°C° 0 mm 1 mps 756 mmHg 78%
    22:00 +20°C° 0 mm 0 mps 756 mmHg 81%
    23:00 +19°C° 0 mm 0 mps 756 mmHg 83%

    25 July, Thursday

    Time Temperature Precipitation Wind Pressure Humidity
    00:00 +21°C° 0 mm 1 mps 756 mmHg 85%
    01:00 +20°C° 0 mm 1 mps 756 mmHg 86%
    02:00 +20°C° 0 mm 1 mps 756 mmHg 88%
    03:00 +20°C° 0 mm 1 mps 756 mmHg 90%
    04:00 +19°C° 0 mm 1 mps 756 mmHg 91%
    05:00 +21°C° 0 mm 1 mps 756 mmHg 87%
    06:00 +22°C° 0 mm 1 mps 757 mmHg 83%
    07:00 +24°C° 0 mm 1 mps 757 mmHg 78%
    08:00 +25°C° 0 mm 2 mps 757 mmHg 71%
    09:00 +27°C° 0 mm 2 mps 757 mmHg 64%
    10:00 +28°C° 0 mm 2 mps 757 mmHg 57%
    11:00 +29°C° 0 mm 2 mps 757 mmHg 56%
    12:00 +29°C° 0 mm 2 mps 757 mmHg 54%
    13:00 +30°C° 0 mm 2 mps 756 mmHg 53%
    14:00 +30°C° 0 mm 3 mps 756 mmHg 52%
    15:00 +30°C° 0 mm 3 mps 756 mmHg 52%
    16:00 +30°C° 0 mm 3 mps 756 mmHg 51%
    17:00 +28°C° 0 mm 3 mps 756 mmHg 57%
    18:00 +27°C° 0 mm 3 mps 756 mmHg 63%
    19:00 +26°C° 0 mm 2 mps 756 mmHg 69%
    20:00 +25°C° 0 mm 2 mps 756 mmHg 73%
    21:00 +24°C° 0 mm 2 mps 756 mmHg 76%
    22:00 +23°C° 0 mm 2 mps 756 mmHg 80%
    23:00 +21°C° 0 mm 2 mps 756 mmHg 83%

    26 July, Friday

    Time Temperature Precipitation Wind Pressure Humidity
    00:00 +21°C° 0 mm 2 mps 756 mmHg 85%
    01:00 +20°C° 0 mm 2 mps 756 mmHg 88%
    02:00 +20°C° 0 mm 2 mps 756 mmHg 88%
    03:00 +19°C° 0 mm 2 mps 756 mmHg 89%
    04:00 +19°C° 0 mm 2 mps 756 mmHg 90%
    05:00 +21°C° 0 mm 2 mps 756 mmHg 84%
    06:00 +23°C° 0 mm 2 mps 756 mmHg 78%
    07:00 +25°C° 0 mm 2 mps 756 mmHg 72%
    08:00 +26°C° 0 mm 2 mps 756 mmHg 65%
    09:00 +27°C° 0 mm 3 mps 756 mmHg 59%
    10:00 +29°C° 0 mm 3 mps 756 mmHg 53%
    11:00 +30°C° 0 mm 3 mps 755 mmHg 50%
    12:00 +30°C° 0 mm 3 mps 755 mmHg 47%
    13:00 +31°C° 0 mm 3 mps 755 mmHg 44%
    14:00 +31°C° 0 mm 3 mps 754 mmHg 45%
    15:00 +31°C° 0 mm 3 mps 754 mmHg 45%
    16:00 +30°C° 0 mm 3 mps 754 mmHg 46%
    17:00 +29°C° 0 mm 3 mps 754 mmHg 51%
    18:00 +28°C° 0 mm 3 mps 754 mmHg 57%
    19:00 +26°C° 0 mm 3 mps 753 mmHg 63%
    20:00 +25°C° 0 mm 3 mps 754 mmHg 65%
    21:00 +24°C° 0 mm 3 mps 754 mmHg 67%
    22:00 +22°C° 0 mm 3 mps 754 mmHg 69%
    23:00 +22°C° 0 mm 3 mps 754 mmHg 73%
    Show more